Time,TemperatureF,DewpointF,PressureIn,WindDirection,WindDirectionDegrees,WindSpeedMPH,WindSpeedGustMPH,Humidity,HourlyPrecipIn,Conditions,Clouds,dailyrainin,SoftwareType,DateUTC
2013-08-28 00:01:00,76.4,70.5,30.02,East,86,2.0,2.0,82,0.00,,SKC,0.00,VWS V14.01,2013-08-28 04:01:00,
2013-08-28 00:05:00,76.4,70.5,30.02,East,89,2.0,5.0,82,0.00,,SKC,0.00,VWS V14.01,2013-08-28 04:05:00,
2013-08-28 00:09:00,76.5,70.6,30.02,East,97,3.0,5.0,82,0.00,,SKC,0.00,VWS V14.01,2013-08-28 04:09:00,
2013-08-28 00:14:00,76.5,71.0,30.02,East,98,1.0,3.0,83,0.00,,SKC,0.00,VWS V14.01,2013-08-28 04:14:00,
2013-08-28 00:19:00,76.6,71.1,30.01,ESE,114,3.0,5.0,83,0.00,,SKC,0.00,VWS V14.01,2013-08-28 04:19:00,
2013-08-28 00:24:00,76.6,71.1,30.01,ESE,117,0.0,4.0,83,0.00,,SKC,0.00,VWS V14.01,2013-08-28 04:24:00,
2013-08-28 00:29:00,76.6,71.1,30.01,ESE,115,3.0,4.0,83,0.00,,SKC,0.00,VWS V14.01,2013-08-28 04:29:00,
2013-08-28 00:35:00,76.6,71.1,30.01,ESE,110,1.0,3.0,83,0.00,,SKC,0.00,VWS V14.01,2013-08-28 04:35:00,
2013-08-28 00:40:00,76.5,71.0,30.02,ESE,111,0.0,5.0,83,0.00,,SKC,0.00,VWS V14.01,2013-08-28 04:40:00,
2013-08-28 00:45:00,76.4,70.9,30.02,ESE,111,0.0,3.0,83,0.00,,SKC,0.00,VWS V14.01,2013-08-28 04:45:00,
2013-08-28 00:50:00,76.4,70.9,30.01,ESE,111,2.0,3.0,83,0.00,,SKC,0.00,VWS V14.01,2013-08-28 04:50:00,
2013-08-28 00:55:00,76.4,70.9,30.01,ESE,111,0.0,2.0,83,0.00,,SKC,0.00,VWS V14.01,2013-08-28 04:55:00,
2013-08-28 01:00:00,76.2,70.7,30.01,ESE,111,2.0,3.0,83,0.00,,SKC,0.00,VWS V14.01,2013-08-28 05:00:00,
2013-08-28 01:05:00,76.1,70.6,30.01,ESE,108,3.0,4.0,83,0.00,,SKC,0.00,VWS V14.01,2013-08-28 05:05:00,
2013-08-28 01:10:00,76.1,70.6,30.01,ESE,108,2.0,3.0,83,0.00,,SKC,0.00,VWS V14.01,2013-08-28 05:10:00,
2013-08-28 01:15:00,76.1,70.6,30.01,ESE,108,1.0,1.0,83,0.00,,SKC,0.00,VWS V14.01,2013-08-28 05:15:00,
2013-08-28 01:20:00,76.1,70.9,30.01,ESE,108,0.0,2.0,84,0.00,,SKC,0.00,VWS V14.01,2013-08-28 05:20:00,
2013-08-28 01:25:00,76.0,70.8,30.01,ESE,108,0.0,2.0,84,0.00,,SKC,0.00,VWS V14.01,2013-08-28 05:25:00,
2013-08-28 01:30:00,75.9,70.7,30.01,ESE,108,1.0,2.0,84,0.00,,SKC,0.00,VWS V14.01,2013-08-28 05:30:00,
2013-08-28 01:35:00,75.8,70.6,30.00,ESE,108,0.0,2.0,84,0.00,,SKC,0.00,VWS V14.01,2013-08-28 05:35:00,
2013-08-28 01:40:00,75.7,70.5,30.00,ESE,108,1.0,1.0,84,0.00,,SKC,0.00,VWS V14.01,2013-08-28 05:40:00,
2013-08-28 01:45:00,75.6,70.4,30.00,ESE,108,2.0,2.0,84,0.00,,SKC,0.00,VWS V14.01,2013-08-28 05:45:00,
2013-08-28 01:50:00,75.5,70.3,30.00,ESE,108,1.0,2.0,84,0.00,,SKC,0.00,VWS V14.01,2013-08-28 05:50:00,
2013-08-28 01:55:00,75.3,70.1,30.00,ESE,108,2.0,3.0,84,0.00,,SKC,0.00,VWS V14.01,2013-08-28 05:55:00,
2013-08-28 02:00:00,75.2,70.0,30.00,ESE,108,1.0,2.0,84,0.00,,SKC,0.00,VWS V14.01,2013-08-28 06:00:00,
2013-08-28 02:05:00,75.0,70.2,30.00,ESE,108,1.0,2.0,85,0.00,,SKC,0.00,VWS V14.01,2013-08-28 06:05:00,
2013-08-28 02:10:00,74.8,70.0,30.00,ESE,108,1.0,2.0,85,0.00,,SKC,0.00,VWS V14.01,2013-08-28 06:10:00,
2013-08-28 02:15:00,74.7,70.2,30.00,ESE,108,1.0,2.0,86,0.00,,SKC,0.00,VWS V14.01,2013-08-28 06:15:00,
2013-08-28 02:20:00,74.6,70.1,30.00,ESE,108,1.0,3.0,86,0.00,,SKC,0.00,VWS V14.01,2013-08-28 06:20:00,
2013-08-28 02:25:00,74.5,70.0,30.00,ESE,108,1.0,3.0,86,0.00,,SKC,0.00,VWS V14.01,2013-08-28 06:25:00,
2013-08-28 02:30:00,74.4,69.9,30.00,ESE,108,2.0,3.0,86,0.00,,SKC,0.00,VWS V14.01,2013-08-28 06:30:00,
2013-08-28 02:35:00,74.3,70.2,29.99,ESE,108,1.0,3.0,87,0.00,,SKC,0.00,VWS V14.01,2013-08-28 06:35:00,
2013-08-28 02:40:00,74.3,70.2,29.99,ESE,107,2.0,3.0,87,0.00,,SKC,0.00,VWS V14.01,2013-08-28 06:40:00,
2013-08-28 02:45:00,74.2,70.1,29.99,ESE,107,3.0,4.0,87,0.00,,SKC,0.00,VWS V14.01,2013-08-28 06:45:00,
2013-08-28 02:50:00,74.1,70.0,29.99,ESE,107,2.0,3.0,87,0.00,,SKC,0.00,VWS V14.01,2013-08-28 06:50:00,
2013-08-28 02:55:00,74.2,70.1,29.99,ESE,107,1.0,3.0,87,0.00,,SKC,0.00,VWS V14.01,2013-08-28 06:55:00,
2013-08-28 03:00:00,74.2,70.1,29.99,ESE,107,1.0,2.0,87,0.00,,SKC,0.00,VWS V14.01,2013-08-28 07:00:00,
2013-08-28 03:05:00,74.2,70.1,29.99,ESE,107,2.0,3.0,87,0.00,,SKC,0.00,VWS V14.01,2013-08-28 07:05:00,
2013-08-28 03:10:00,74.2,70.1,29.99,ESE,107,2.0,3.0,87,0.00,,SKC,0.00,VWS V14.01,2013-08-28 07:10:00,
2013-08-28 03:15:00,74.2,70.1,29.99,ESE,107,2.0,3.0,87,0.00,,SKC,0.00,VWS V14.01,2013-08-28 07:15:00,
2013-08-28 03:20:00,74.2,70.1,29.99,ESE,107,3.0,4.0,87,0.00,,SKC,0.00,VWS V14.01,2013-08-28 07:20:00,
2013-08-28 03:25:00,74.2,70.1,29.98,ESE,107,2.0,3.0,87,0.00,,SKC,0.00,VWS V14.01,2013-08-28 07:25:00,
2013-08-28 03:30:00,74.2,70.1,29.98,ESE,107,1.0,4.0,87,0.00,,SKC,0.00,VWS V14.01,2013-08-28 07:30:00,
2013-08-28 03:35:00,74.4,70.3,29.98,ESE,102,3.0,4.0,87,0.00,,SKC,0.00,VWS V14.01,2013-08-28 07:35:00,
2013-08-28 03:40:00,74.4,70.3,29.98,East,100,6.0,6.0,87,0.00,,SKC,0.00,VWS V14.01,2013-08-28 07:40:00,
2013-08-28 03:45:00,74.6,70.5,29.98,East,100,3.0,6.0,87,0.00,,SKC,0.00,VWS V14.01,2013-08-28 07:45:00,
2013-08-28 03:50:00,74.7,70.6,29.98,East,92,3.0,5.0,87,0.00,,SKC,0.00,VWS V14.01,2013-08-28 07:50:00,
2013-08-28 03:55:00,74.6,70.5,29.98,East,92,2.0,3.0,87,0.00,,SKC,0.00,VWS V14.01,2013-08-28 07:55:00,
2013-08-28 04:00:00,74.6,70.5,29.98,East,92,2.0,3.0,87,0.00,,SKC,0.00,VWS V14.01,2013-08-28 08:00:00,
2013-08-28 04:05:00,74.5,70.4,29.98,East,92,0.0,3.0,87,0.00,,SKC,0.00,VWS V14.01,2013-08-28 08:05:00,
2013-08-28 04:10:00,74.1,70.0,29.98,East,92,0.0,1.0,87,0.00,,SKC,0.00,VWS V14.01,2013-08-28 08:10:00,
2013-08-28 04:15:00,73.9,70.1,29.98,East,89,0.0,3.0,88,0.00,,SKC,0.00,VWS V14.01,2013-08-28 08:15:00,
2013-08-28 04:20:00,73.8,70.0,29.98,East,89,0.0,2.0,88,0.00,,SKC,0.00,VWS V14.01,2013-08-28 08:20:00,
2013-08-28 04:25:00,73.8,70.4,29.99,East,89,1.0,2.0,89,0.00,,SKC,0.00,VWS V14.01,2013-08-28 08:25:00,
2013-08-28 04:30:00,73.6,70.2,29.98,East,89,1.0,3.0,89,0.00,,SKC,0.00,VWS V14.01,2013-08-28 08:30:00,
2013-08-28 04:35:00,73.4,70.3,29.98,East,89,2.0,3.0,90,0.00,,SKC,0.00,VWS V14.01,2013-08-28 08:35:00,
2013-08-28 04:40:00,73.3,70.2,29.98,East,89,2.0,3.0,90,0.00,,SKC,0.00,VWS V14.01,2013-08-28 08:40:00,
2013-08-28 04:45:00,73.3,70.2,29.98,East,89,2.0,3.0,90,0.00,,SKC,0.00,VWS V14.01,2013-08-28 08:45:00,
2013-08-28 04:50:00,73.2,70.1,29.99,East,89,2.0,5.0,90,0.00,,SKC,0.00,VWS V14.01,2013-08-28 08:50:00,
2013-08-28 04:55:00,73.1,70.0,29.99,East,88,3.0,5.0,90,0.00,,SKC,0.00,VWS V14.01,2013-08-28 08:55:00,
2013-08-28 05:00:00,73.0,70.2,29.98,East,88,2.0,5.0,91,0.00,,SKC,0.00,VWS V14.01,2013-08-28 09:00:00,
2013-08-28 05:05:00,72.9,70.1,29.98,East,88,2.0,5.0,91,0.00,,SKC,0.00,VWS V14.01,2013-08-28 09:05:00,
2013-08-28 05:10:00,72.8,70.0,29.98,East,88,2.0,3.0,91,0.00,,SKC,0.00,VWS V14.01,2013-08-28 09:10:00,
2013-08-28 05:15:00,72.8,70.0,29.98,ENE,67,2.0,5.0,91,0.00,,SKC,0.00,VWS V14.01,2013-08-28 09:15:00,
2013-08-28 05:20:00,72.7,69.9,29.98,ENE,67,1.0,4.0,91,0.00,,SKC,0.00,VWS V14.01,2013-08-28 09:20:00,
2013-08-28 05:25:00,72.7,69.9,29.98,ENE,67,1.0,3.0,91,0.00,,SKC,0.00,VWS V14.01,2013-08-28 09:25:00,
2013-08-28 05:30:00,72.6,69.8,29.98,ENE,67,1.0,3.0,91,0.00,,SKC,0.00,VWS V14.01,2013-08-28 09:30:00,
2013-08-28 05:34:00,72.5,69.7,29.98,ENE,67,2.0,3.0,91,0.00,,SKC,0.00,VWS V14.01,2013-08-28 09:34:00,
2013-08-28 05:39:00,72.5,69.7,29.98,ENE,67,2.0,2.0,91,0.00,,SKC,0.00,VWS V14.01,2013-08-28 09:39:00,
2013-08-28 05:44:00,72.5,69.7,29.98,ENE,67,1.0,2.0,91,0.00,,SKC,0.00,VWS V14.01,2013-08-28 09:44:00,
2013-08-28 05:49:00,72.6,69.8,29.98,ENE,67,1.0,3.0,91,0.00,,SKC,0.00,VWS V14.01,2013-08-28 09:49:00,
2013-08-28 05:54:00,72.7,69.9,29.98,ENE,67,1.0,2.0,91,0.00,,SKC,0.00,VWS V14.01,2013-08-28 09:54:00,
2013-08-28 05:59:00,72.6,69.8,29.98,ENE,67,1.0,2.0,91,0.00,,SKC,0.00,VWS V14.01,2013-08-28 09:59:00,
2013-08-28 06:04:00,72.7,69.9,29.98,ENE,67,2.0,2.0,91,0.00,,SKC,0.00,VWS V14.01,2013-08-28 10:04:00,
2013-08-28 06:09:00,72.7,69.9,29.99,ENE,67,0.0,2.0,91,0.00,,SKC,0.00,VWS V14.01,2013-08-28 10:09:00,
2013-08-28 06:14:00,72.7,70.2,29.99,ENE,67,1.0,2.0,92,0.00,,SKC,0.00,VWS V14.01,2013-08-28 10:14:00,
2013-08-28 06:19:00,72.6,69.8,29.99,ENE,67,2.0,2.0,91,0.00,,SKC,0.00,VWS V14.01,2013-08-28 10:19:00,
2013-08-28 06:24:00,72.5,70.1,29.99,ENE,67,1.0,3.0,92,0.00,,SKC,0.00,VWS V14.01,2013-08-28 10:24:00,
2013-08-28 06:29:00,72.4,69.9,29.99,ENE,67,3.0,3.0,92,0.00,,SKC,0.00,VWS V14.01,2013-08-28 10:29:00,
2013-08-28 06:34:00,72.5,70.1,29.99,ENE,67,3.0,4.0,92,0.00,,SKC,0.00,VWS V14.01,2013-08-28 10:34:00,
2013-08-28 06:39:00,72.8,70.3,29.99,ENE,69,3.0,4.0,92,0.00,,SKC,0.00,VWS V14.01,2013-08-28 10:39:00,
2013-08-28 06:44:00,72.9,70.4,29.99,ENE,69,1.0,3.0,92,0.00,,SKC,0.00,VWS V14.01,2013-08-28 10:44:00,
2013-08-28 06:49:00,72.9,70.4,29.99,ENE,69,2.0,3.0,92,0.00,,SKC,0.00,VWS V14.01,2013-08-28 10:49:00,
2013-08-28 06:54:00,73.0,70.5,29.99,ENE,69,2.0,3.0,92,0.00,,SKC,0.00,VWS V14.01,2013-08-28 10:54:00,
2013-08-28 06:59:00,73.0,70.5,30.00,ENE,69,2.0,3.0,92,0.00,,SKC,0.00,VWS V14.01,2013-08-28 10:59:00,
2013-08-28 07:04:00,73.1,70.6,29.99,ENE,69,2.0,3.0,92,0.00,,SKC,0.00,VWS V14.01,2013-08-28 11:04:00,
2013-08-28 07:09:00,73.0,70.2,30.00,ENE,69,3.0,3.0,91,0.00,,SKC,0.00,VWS V14.01,2013-08-28 11:09:00,
2013-08-28 07:14:00,73.0,70.2,30.00,ENE,69,3.0,3.0,91,0.00,,SKC,0.00,VWS V14.01,2013-08-28 11:14:00,
2013-08-28 07:19:00,73.0,70.2,30.00,ENE,69,3.0,3.0,91,0.00,,SKC,0.00,VWS V14.01,2013-08-28 11:19:00,
2013-08-28 07:24:00,73.1,70.3,30.00,ENE,69,2.0,3.0,91,0.00,,SKC,0.00,VWS V14.01,2013-08-28 11:24:00,
2013-08-28 07:29:00,73.3,70.5,30.00,ENE,69,3.0,3.0,91,0.00,,SKC,0.00,VWS V14.01,2013-08-28 11:29:00,
2013-08-28 07:34:00,73.5,70.7,30.00,ENE,69,3.0,3.0,91,0.00,,SKC,0.00,VWS V14.01,2013-08-28 11:34:00,
2013-08-28 07:39:00,73.8,71.0,30.00,ENE,69,2.0,3.0,91,0.00,,SKC,0.00,VWS V14.01,2013-08-28 11:39:00,
2013-08-28 07:44:00,73.8,71.0,30.00,ENE,69,1.0,3.0,91,0.00,,SKC,0.00,VWS V14.01,2013-08-28 11:44:00,
2013-08-28 07:49:00,73.9,71.1,30.00,ENE,69,1.0,1.0,91,0.00,,SKC,0.00,VWS V14.01,2013-08-28 11:49:00,
2013-08-28 07:54:00,74.2,71.4,30.00,ENE,69,1.0,2.0,91,0.00,,SKC,0.00,VWS V14.01,2013-08-28 11:54:00,
2013-08-28 07:59:00,74.3,71.5,30.01,ENE,69,1.0,3.0,91,0.00,,SKC,0.00,VWS V14.01,2013-08-28 11:59:00,
2013-08-28 08:04:00,74.5,71.7,30.01,ENE,69,3.0,3.0,91,0.00,,SKC,0.00,VWS V14.01,2013-08-28 12:04:00,
2013-08-28 08:09:00,74.7,71.6,30.01,ENE,69,2.0,4.0,90,0.00,,SKC,0.00,VWS V14.01,2013-08-28 12:09:00,
2013-08-28 08:14:00,74.8,71.7,30.01,ENE,69,3.0,3.0,90,0.00,,SKC,0.00,VWS V14.01,2013-08-28 12:14:00,
2013-08-28 08:19:00,74.9,71.8,30.01,ENE,69,0.0,3.0,90,0.00,,SKC,0.00,VWS V14.01,2013-08-28 12:19:00,
2013-08-28 08:24:00,75.2,72.1,30.01,ENE,69,1.0,3.0,90,0.00,,SKC,0.00,VWS V14.01,2013-08-28 12:24:00,
2013-08-28 08:29:00,75.7,72.6,30.01,ENE,69,3.0,4.0,90,0.00,,SKC,0.00,VWS V14.01,2013-08-28 12:29:00,
2013-08-28 08:34:00,76.1,72.6,30.01,ENE,69,2.0,4.0,89,0.00,,SKC,0.00,VWS V14.01,2013-08-28 12:34:00,
2013-08-28 08:39:00,76.4,72.9,30.01,ENE,69,3.0,4.0,89,0.00,,SKC,0.00,VWS V14.01,2013-08-28 12:39:00,
2013-08-28 08:44:00,76.7,72.9,30.01,East,80,3.0,6.0,88,0.00,,SKC,0.00,VWS V14.01,2013-08-28 12:44:00,
2013-08-28 08:49:00,77.1,72.9,30.01,ESE,108,5.0,7.0,87,0.00,,SKC,0.00,VWS V14.01,2013-08-28 12:49:00,
2013-08-28 08:54:00,77.4,72.9,30.01,ESE,104,3.0,6.0,86,0.00,,SKC,0.00,VWS V14.01,2013-08-28 12:54:00,
2013-08-28 08:59:00,77.8,73.3,30.01,East,92,5.0,6.0,86,0.00,,SKC,0.00,VWS V14.01,2013-08-28 12:59:00,
2013-08-28 09:04:00,78.0,72.8,30.02,ESE,104,5.0,7.0,84,0.00,,SKC,0.00,VWS V14.01,2013-08-28 13:04:00,
2013-08-28 09:09:00,78.4,73.2,30.02,ESE,112,7.0,7.0,84,0.00,,SKC,0.00,VWS V14.01,2013-08-28 13:09:00,
2013-08-28 09:14:00,78.7,73.1,30.02,ESE,105,5.0,7.0,83,0.00,,SKC,0.00,VWS V14.01,2013-08-28 13:14:00,
2013-08-28 09:19:00,79.2,73.2,30.02,ESE,105,5.0,8.0,82,0.00,,SKC,0.00,VWS V14.01,2013-08-28 13:19:00,
2013-08-28 09:24:00,79.5,73.2,30.02,ESE,103,4.0,5.0,81,0.00,,SKC,0.00,VWS V14.01,2013-08-28 13:24:00,
2013-08-28 09:29:00,79.8,73.1,30.02,ESE,117,5.0,7.0,80,0.00,,SKC,0.00,VWS V14.01,2013-08-28 13:29:00,
2013-08-28 09:34:00,79.9,72.8,30.02,East,101,5.0,7.0,79,0.00,,SKC,0.00,VWS V14.01,2013-08-28 13:34:00,
2013-08-28 09:39:00,80.1,73.0,30.02,ESE,104,1.0,5.0,79,0.00,,SKC,0.00,VWS V14.01,2013-08-28 13:39:00,
2013-08-28 09:44:00,80.5,73.0,30.02,ESE,113,3.0,8.0,78,0.00,,SKC,0.00,VWS V14.01,2013-08-28 13:44:00,
2013-08-28 09:49:00,80.8,72.9,30.02,ESE,121,2.0,7.0,77,0.00,,SKC,0.00,VWS V14.01,2013-08-28 13:49:00,
2013-08-28 09:54:00,80.9,72.2,30.03,SE,126,5.0,9.0,75,0.00,,SKC,0.00,VWS V14.01,2013-08-28 13:54:00,
2013-08-28 09:59:00,81.0,72.3,30.03,ESE,123,3.0,8.0,75,0.00,,SKC,0.00,VWS V14.01,2013-08-28 13:59:00,
2013-08-28 10:04:00,81.3,72.2,30.03,ESE,119,3.0,7.0,74,0.00,,SKC,0.00,VWS V14.01,2013-08-28 14:04:00,
2013-08-28 10:09:00,81.6,72.9,30.03,ESE,107,1.0,5.0,75,0.00,,SKC,0.00,VWS V14.01,2013-08-28 14:09:00,
2013-08-28 10:14:00,82.0,72.5,30.03,ESE,114,2.0,4.0,73,0.00,,SKC,0.00,VWS V14.01,2013-08-28 14:14:00,
2013-08-28 10:19:00,82.4,72.1,30.03,ESE,111,3.0,7.0,71,0.00,,SKC,0.00,VWS V14.01,2013-08-28 14:19:00,
2013-08-28 10:24:00,82.5,71.7,30.03,East,84,3.0,7.0,70,0.00,,SKC,0.00,VWS V14.01,2013-08-28 14:24:00,
2013-08-28 10:29:00,82.8,72.4,30.03,ESE,116,4.0,5.0,71,0.00,,SKC,0.00,VWS V14.01,2013-08-28 14:29:00,
2013-08-28 10:34:00,83.2,72.8,30.04,ESE,115,2.0,5.0,71,0.00,,SKC,0.00,VWS V14.01,2013-08-28 14:34:00,
2013-08-28 10:39:00,83.3,72.1,30.04,ENE,72,3.0,7.0,69,0.00,,SKC,0.00,VWS V14.01,2013-08-28 14:39:00,
2013-08-28 10:44:00,83.1,71.4,30.04,ENE,59,7.0,8.0,68,0.00,,SKC,0.00,VWS V14.01,2013-08-28 14:44:00,
2013-08-28 10:49:00,83.0,70.5,30.05,East,90,5.0,9.0,66,0.00,,SKC,0.00,VWS V14.01,2013-08-28 14:49:00,
2013-08-28 10:54:00,83.1,70.1,30.05,East,94,5.0,7.0,65,0.00,,SKC,0.00,VWS V14.01,2013-08-28 14:54:00,
2013-08-28 10:59:00,83.7,70.2,30.05,East,96,3.0,6.0,64,0.00,,SKC,0.00,VWS V14.01,2013-08-28 14:59:00,
2013-08-28 11:04:00,83.9,69.5,30.05,East,91,6.0,7.0,62,0.00,,SKC,0.00,VWS V14.01,2013-08-28 15:04:00,
2013-08-28 11:09:00,83.9,70.4,30.05,ESE,113,9.0,9.0,64,0.00,,SKC,0.00,VWS V14.01,2013-08-28 15:09:00,
2013-08-28 11:14:00,84.1,69.2,30.05,ENE,74,2.0,8.0,61,0.00,,SKC,0.00,VWS V14.01,2013-08-28 15:14:00,
2013-08-28 11:19:00,84.4,70.0,30.05,East,101,5.0,8.0,62,0.00,,SKC,0.00,VWS V14.01,2013-08-28 15:19:00,
2013-08-28 11:24:00,84.5,68.1,30.05,ESE,116,4.0,9.0,58,0.00,,SKC,0.00,VWS V14.01,2013-08-28 15:24:00,
2013-08-28 11:29:00,84.9,69.0,30.05,East,98,5.0,6.0,59,0.00,,SKC,0.00,VWS V14.01,2013-08-28 15:29:00,
2013-08-28 11:34:00,85.1,68.7,30.05,ESE,102,5.0,10.0,58,0.00,,SKC,0.00,VWS V14.01,2013-08-28 15:34:00,
2013-08-28 11:39:00,85.0,68.1,30.05,East,98,3.0,10.0,57,0.00,,SKC,0.00,VWS V14.01,2013-08-28 15:39:00,
2013-08-28 11:44:00,84.9,68.5,30.05,East,80,3.0,7.0,58,0.00,,SKC,0.00,VWS V14.01,2013-08-28 15:44:00,
2013-08-28 11:49:00,85.0,68.6,30.05,ESE,122,3.0,7.0,58,0.00,,SKC,0.00,VWS V14.01,2013-08-28 15:49:00,
2013-08-28 11:54:00,85.4,69.0,30.05,ESE,109,7.0,8.0,58,0.00,,SKC,0.00,VWS V14.01,2013-08-28 15:54:00,
2013-08-28 11:59:00,85.7,68.7,30.05,East,88,5.0,7.0,57,0.00,,SKC,0.00,VWS V14.01,2013-08-28 15:59:00,
2013-08-28 12:04:00,85.6,68.6,30.05,SSE,151,4.0,9.0,57,0.00,,SKC,0.00,VWS V14.01,2013-08-28 16:04:00,
2013-08-28 12:09:00,85.5,68.5,30.05,East,97,5.0,7.0,57,0.00,,SKC,0.00,VWS V14.01,2013-08-28 16:09:00,
2013-08-28 12:14:00,85.8,68.3,30.04,ESE,109,5.0,8.0,56,0.00,,SKC,0.00,VWS V14.01,2013-08-28 16:14:00,
2013-08-28 12:19:00,86.1,68.1,30.04,ESE,121,1.0,8.0,55,0.00,,SKC,0.00,VWS V14.01,2013-08-28 16:19:00,
2013-08-28 12:24:00,86.2,68.2,30.04,SE,135,2.0,7.0,55,0.00,,SKC,0.00,VWS V14.01,2013-08-28 16:24:00,
2013-08-28 12:29:00,86.2,68.7,30.04,ENE,59,4.0,5.0,56,0.00,,SKC,0.00,VWS V14.01,2013-08-28 16:29:00,
2013-08-28 12:34:00,86.2,68.2,30.03,East,92,6.0,8.0,55,0.00,,SKC,0.00,VWS V14.01,2013-08-28 16:34:00,
2013-08-28 12:39:00,86.0,68.0,30.03,ENE,73,4.0,9.0,55,0.00,,SKC,0.00,VWS V14.01,2013-08-28 16:39:00,
2013-08-28 12:44:00,85.9,68.4,30.03,ENE,63,3.0,5.0,56,0.00,,SKC,0.00,VWS V14.01,2013-08-28 16:44:00,
2013-08-28 12:49:00,86.4,68.3,30.03,ESE,103,4.0,7.0,55,0.00,,SKC,0.00,VWS V14.01,2013-08-28 16:49:00,
2013-08-28 12:54:00,86.4,68.3,30.02,East,98,7.0,8.0,55,0.00,,SKC,0.00,VWS V14.01,2013-08-28 16:54:00,
2013-08-28 12:59:00,86.5,65.1,30.02,East,99,3.0,9.0,49,0.00,,SKC,0.00,VWS V14.01,2013-08-28 16:59:00,
2013-08-28 13:04:00,86.7,66.4,30.02,East,87,5.0,9.0,51,0.00,,SKC,0.00,VWS V14.01,2013-08-28 17:04:00,
2013-08-28 13:09:00,86.6,67.4,30.02,ESE,107,4.0,11.0,53,0.00,,SKC,0.00,VWS V14.01,2013-08-28 17:09:00,
2013-08-28 13:14:00,86.8,66.5,30.01,East,87,5.0,9.0,51,0.00,,SKC,0.00,VWS V14.01,2013-08-28 17:14:00,
2013-08-28 13:19:00,86.7,67.0,30.01,East,100,6.0,8.0,52,0.00,,SKC,0.00,VWS V14.01,2013-08-28 17:19:00,
2013-08-28 13:24:00,87.0,66.7,30.01,East,84,6.0,6.0,51,0.00,,SKC,0.00,VWS V14.01,2013-08-28 17:24:00,
2013-08-28 13:29:00,86.8,65.9,30.01,East,86,5.0,11.0,50,0.00,,SKC,0.00,VWS V14.01,2013-08-28 17:29:00,
2013-08-28 13:34:00,87.1,67.4,30.01,ENE,71,4.0,8.0,52,0.00,,SKC,0.00,VWS V14.01,2013-08-28 17:34:00,
2013-08-28 13:39:00,87.5,67.2,30.01,NNE,13,3.0,7.0,51,0.00,,SKC,0.00,VWS V14.01,2013-08-28 17:39:00,
2013-08-28 13:44:00,87.7,66.2,30.00,East,80,9.0,11.0,49,0.00,,SKC,0.00,VWS V14.01,2013-08-28 17:44:00,
2013-08-28 13:49:00,87.4,65.9,30.00,NE,38,6.0,12.0,49,0.00,,SKC,0.00,VWS V14.01,2013-08-28 17:49:00,
2013-08-28 13:54:00,87.7,66.8,30.00,ENE,74,7.0,10.0,50,0.00,,SKC,0.00,VWS V14.01,2013-08-28 17:54:00,
2013-08-28 13:59:00,88.1,67.1,30.00,NNE,24,7.0,7.0,50,0.00,,SKC,0.00,VWS V14.01,2013-08-28 17:59:00,
2013-08-28 14:04:00,87.8,66.9,29.99,ENE,59,7.0,11.0,50,0.00,,SKC,0.00,VWS V14.01,2013-08-28 18:04:00,
2013-08-28 14:09:00,87.7,66.2,29.99,NNE,24,1.0,9.0,49,0.00,,SKC,0.00,VWS V14.01,2013-08-28 18:09:00,
2013-08-28 14:14:00,88.2,66.1,29.99,NE,42,4.0,11.0,48,0.00,,SKC,0.00,VWS V14.01,2013-08-28 18:14:00,
2013-08-28 14:19:00,88.1,65.3,29.99,NE,40,5.0,11.0,47,0.00,,SKC,0.00,VWS V14.01,2013-08-28 18:19:00,
2013-08-28 14:24:00,88.0,65.3,29.99,ESE,103,7.0,10.0,47,0.00,,SKC,0.00,VWS V14.01,2013-08-28 18:24:00,
2013-08-28 14:29:00,87.9,66.4,29.99,ENE,67,9.0,10.0,49,0.00,,SKC,0.00,VWS V14.01,2013-08-28 18:29:00,
2013-08-28 14:34:00,87.8,66.3,29.99,NNE,27,3.0,12.0,49,0.00,,SKC,0.00,VWS V14.01,2013-08-28 18:34:00,
2013-08-28 14:39:00,88.3,66.1,29.99,ENE,67,4.0,7.0,48,0.00,,SKC,0.00,VWS V14.01,2013-08-28 18:39:00,
2013-08-28 14:44:00,88.5,65.7,29.99,ENE,71,3.0,8.0,47,0.00,,SKC,0.00,VWS V14.01,2013-08-28 18:44:00,
2013-08-28 14:49:00,88.6,66.4,29.99,NE,50,6.0,10.0,48,0.00,,SKC,0.00,VWS V14.01,2013-08-28 18:49:00,
2013-08-28 14:54:00,88.5,66.3,29.99,ESE,108,7.0,10.0,48,0.00,,SKC,0.00,VWS V14.01,2013-08-28 18:54:00,
2013-08-28 14:59:00,88.4,66.2,29.99,ESE,103,2.0,10.0,48,0.00,,SKC,0.00,VWS V14.01,2013-08-28 18:59:00,
2013-08-28 15:04:00,88.6,65.8,29.99,East,81,8.0,11.0,47,0.00,,SKC,0.00,VWS V14.01,2013-08-28 19:04:00,
2013-08-28 15:09:00,88.3,66.7,29.99,ENE,67,8.0,13.0,49,0.00,,SKC,0.00,VWS V14.01,2013-08-28 19:09:00,
2013-08-28 15:14:00,88.1,66.6,29.99,NE,42,7.0,11.0,49,0.00,,SKC,0.00,VWS V14.01,2013-08-28 19:14:00,
2013-08-28 15:19:00,88.3,66.7,29.99,East,79,7.0,11.0,49,0.00,,SKC,0.00,VWS V14.01,2013-08-28 19:19:00,
2013-08-28 15:24:00,88.6,66.4,29.99,SE,134,3.0,7.0,48,0.00,,SKC,0.00,VWS V14.01,2013-08-28 19:24:00,
2013-08-28 15:29:00,89.2,66.3,29.99,NNE,19,6.0,12.0,47,0.00,,SKC,0.00,VWS V14.01,2013-08-28 19:29:00,
2013-08-28 15:34:00,88.6,66.4,29.99,East,88,3.0,10.0,48,0.00,,SKC,0.00,VWS V14.01,2013-08-28 19:34:00,
2013-08-28 15:39:00,88.4,66.2,29.99,NE,46,2.0,9.0,48,0.00,,SKC,0.00,VWS V14.01,2013-08-28 19:39:00,
2013-08-28 15:44:00,88.3,66.7,29.99,NE,42,5.0,7.0,49,0.00,,SKC,0.00,VWS V14.01,2013-08-28 19:44:00,
2013-08-28 15:49:00,88.6,66.4,29.98,NE,34,7.0,9.0,48,0.00,,SKC,0.00,VWS V14.01,2013-08-28 19:49:00,
2013-08-28 15:54:00,88.4,67.4,29.98,ESE,102,7.0,11.0,50,0.00,,SKC,0.00,VWS V14.01,2013-08-28 19:54:00,
2013-08-28 15:59:00,88.5,66.9,29.98,NE,38,9.0,11.0,49,0.00,,SKC,0.00,VWS V14.01,2013-08-28 19:59:00,
2013-08-28 16:04:00,88.4,66.8,29.98,NE,37,3.0,9.0,49,0.00,,SKC,0.00,VWS V14.01,2013-08-28 20:04:00,
2013-08-28 16:09:00,88.1,66.6,29.98,East,80,3.0,7.0,49,0.00,,SKC,0.00,VWS V14.01,2013-08-28 20:09:00,
2013-08-28 16:15:00,88.4,65.6,29.98,NE,36,8.0,10.0,47,0.00,,SKC,0.00,VWS V14.01,2013-08-28 20:15:00,
2013-08-28 16:20:00,88.4,66.2,29.98,NNE,32,5.0,6.0,48,0.00,,SKC,0.00,VWS V14.01,2013-08-28 20:20:00,
2013-08-28 16:25:00,88.6,65.2,29.97,East,97,3.0,8.0,46,0.00,,SKC,0.00,VWS V14.01,2013-08-28 20:25:00,
2013-08-28 16:30:00,88.9,66.1,29.97,ENE,57,5.0,5.0,47,0.00,,SKC,0.00,VWS V14.01,2013-08-28 20:30:00,
2013-08-28 16:35:00,89.1,66.3,29.97,East,91,0.0,10.0,47,0.00,,SKC,0.00,VWS V14.01,2013-08-28 20:35:00,
2013-08-28 16:40:00,89.3,67.1,29.97,East,90,11.0,11.0,48,0.00,,SKC,0.00,VWS V14.01,2013-08-28 20:40:00,
2013-08-28 16:45:00,89.1,66.3,29.97,ESE,103,9.0,9.0,47,0.00,,SKC,0.00,VWS V14.01,2013-08-28 20:45:00,
2013-08-28 16:50:00,89.0,66.8,29.97,ESE,103,8.0,9.0,48,0.00,,SKC,0.00,VWS V14.01,2013-08-28 20:50:00,
2013-08-28 16:55:00,88.4,67.4,29.97,SE,130,6.0,7.0,50,0.00,,SKC,0.00,VWS V14.01,2013-08-28 20:55:00,
2013-08-28 17:00:00,88.3,67.9,29.96,ESE,108,4.0,11.0,51,0.00,,SKC,0.00,VWS V14.01,2013-08-28 21:00:00,
2013-08-28 17:05:00,87.4,71.8,29.97,South,186,11.0,13.0,60,0.00,,SKC,0.00,VWS V14.01,2013-08-28 21:05:00,
2013-08-28 17:10:00,84.8,73.1,29.97,SSE,165,8.0,13.0,68,0.00,,SKC,0.00,VWS V14.01,2013-08-28 21:10:00,
2013-08-28 17:15:00,83.5,73.1,29.97,SE,141,7.0,14.0,71,0.00,,SKC,0.00,VWS V14.01,2013-08-28 21:15:00,
2013-08-28 17:20:00,82.4,73.3,29.97,South,186,13.0,18.0,74,0.00,,SKC,0.00,VWS V14.01,2013-08-28 21:20:00,
2013-08-28 17:25:00,81.9,73.2,29.97,SE,136,6.0,14.0,75,0.00,,SKC,0.00,VWS V14.01,2013-08-28 21:25:00,
2013-08-28 17:30:00,81.7,73.4,29.97,South,182,7.0,12.0,76,0.00,,SKC,0.00,VWS V14.01,2013-08-28 21:30:00,
2013-08-28 17:35:00,81.7,73.4,29.97,SSE,153,8.0,11.0,76,0.00,,SKC,0.00,VWS V14.01,2013-08-28 21:35:00,
2013-08-28 17:40:00,81.7,71.8,29.97,SE,141,10.0,14.0,72,0.00,,SKC,0.00,VWS V14.01,2013-08-28 21:40:00,
2013-08-28 17:45:00,81.7,71.4,29.97,SE,126,5.0,10.0,71,0.00,,SKC,0.00,VWS V14.01,2013-08-28 21:45:00,
2013-08-28 17:50:00,81.7,71.4,29.97,SSW,196,6.0,10.0,71,0.00,,SKC,0.00,VWS V14.01,2013-08-28 21:50:00,
2013-08-28 17:55:00,81.6,71.3,29.97,SSE,149,4.0,10.0,71,0.00,,SKC,0.00,VWS V14.01,2013-08-28 21:55:00,
2013-08-28 18:00:00,81.8,71.5,29.97,SE,143,5.0,8.0,71,0.00,,SKC,0.00,VWS V14.01,2013-08-28 22:00:00,
2013-08-28 18:05:00,81.7,71.4,29.97,SE,132,6.0,9.0,71,0.00,,SKC,0.00,VWS V14.01,2013-08-28 22:05:00,
2013-08-28 18:10:00,81.7,71.4,29.97,South,188,5.0,10.0,71,0.00,,SKC,0.00,VWS V14.01,2013-08-28 22:10:00,
2013-08-28 18:15:00,81.9,71.2,29.97,South,175,3.0,11.0,70,0.00,,SKC,0.00,VWS V14.01,2013-08-28 22:15:00,
2013-08-28 18:20:00,82.2,71.4,29.97,South,180,7.0,11.0,70,0.00,,SKC,0.00,VWS V14.01,2013-08-28 22:20:00,
2013-08-28 18:25:00,82.4,71.2,29.97,SSE,168,7.0,9.0,69,0.00,,SKC,0.00,VWS V14.01,2013-08-28 22:25:00,
2013-08-28 18:30:00,82.5,71.3,29.97,South,173,1.0,9.0,69,0.00,,SKC,0.00,VWS V14.01,2013-08-28 22:30:00,
2013-08-28 18:35:00,82.5,70.9,29.97,South,176,8.0,10.0,68,0.00,,SKC,0.00,VWS V14.01,2013-08-28 22:35:00,
2013-08-28 18:40:00,82.4,70.8,29.97,South,171,2.0,8.0,68,0.00,,SKC,0.00,VWS V14.01,2013-08-28 22:40:00,
2013-08-28 18:45:00,82.5,70.4,29.97,SSE,153,6.0,9.0,67,0.00,,SKC,0.00,VWS V14.01,2013-08-28 22:45:00,
2013-08-28 18:50:00,82.6,71.0,29.97,South,173,2.0,6.0,68,0.00,,SKC,0.00,VWS V14.01,2013-08-28 22:50:00,
2013-08-28 18:55:00,82.7,70.6,29.97,South,171,4.0,8.0,67,0.00,,SKC,0.00,VWS V14.01,2013-08-28 22:55:00,
2013-08-28 19:00:00,82.5,70.4,29.97,SE,134,2.0,7.0,67,0.00,,SKC,0.00,VWS V14.01,2013-08-28 23:00:00,
2013-08-28 19:05:00,82.5,70.9,29.97,SE,140,4.0,5.0,68,0.00,,SKC,0.00,VWS V14.01,2013-08-28 23:05:00,
2013-08-28 19:10:00,82.4,70.8,29.97,SSE,158,0.0,6.0,68,0.00,,SKC,0.00,VWS V14.01,2013-08-28 23:10:00,
2013-08-28 19:15:00,82.4,70.8,29.98,SE,140,6.0,7.0,68,0.00,,SKC,0.00,VWS V14.01,2013-08-28 23:15:00,
2013-08-28 19:20:00,82.2,70.6,29.97,SE,141,1.0,6.0,68,0.00,,SKC,0.00,VWS V14.01,2013-08-28 23:20:00,
2013-08-28 19:25:00,82.1,70.9,29.97,SSE,167,3.0,4.0,69,0.00,,SKC,0.00,VWS V14.01,2013-08-28 23:25:00,
2013-08-28 19:30:00,82.0,70.8,29.98,SSE,160,2.0,4.0,69,0.00,,SKC,0.00,VWS V14.01,2013-08-28 23:30:00,
2013-08-28 19:35:00,81.9,70.7,29.98,SSE,165,4.0,5.0,69,0.00,,SKC,0.00,VWS V14.01,2013-08-28 23:35:00,
2013-08-28 19:40:00,81.9,70.7,29.98,SSE,165,4.0,5.0,69,0.00,,SKC,0.00,VWS V14.01,2013-08-28 23:40:00,
2013-08-28 19:45:00,81.4,70.7,29.98,SSE,163,2.0,5.0,70,0.00,,SKC,0.00,VWS V14.01,2013-08-28 23:45:00,
2013-08-28 19:50:00,81.2,70.5,29.98,SSE,163,1.0,4.0,70,0.00,,SKC,0.00,VWS V14.01,2013-08-28 23:50:00,
2013-08-28 19:55:00,81.1,70.8,29.98,SSE,163,1.0,3.0,71,0.00,,SKC,0.00,VWS V14.01,2013-08-28 23:55:00,
2013-08-28 20:00:00,81.0,70.7,29.98,SSE,163,1.0,3.0,71,0.00,,SKC,0.00,VWS V14.01,2013-08-29 00:00:00,
2013-08-28 20:05:00,80.9,70.6,29.98,SSE,163,1.0,3.0,71,0.00,,SKC,0.00,VWS V14.01,2013-08-29 00:05:00,
2013-08-28 20:10:00,80.7,70.4,29.98,SSE,163,2.0,4.0,71,0.00,,SKC,0.00,VWS V14.01,2013-08-29 00:10:00,
2013-08-28 20:15:00,80.4,70.6,29.99,South,169,3.0,8.0,72,0.00,,SKC,0.00,VWS V14.01,2013-08-29 00:15:00,
2013-08-28 20:20:00,80.3,70.5,29.99,SSE,157,2.0,7.0,72,0.00,,SKC,0.00,VWS V14.01,2013-08-29 00:20:00,
2013-08-28 20:25:00,80.1,70.3,29.99,SSE,165,3.0,5.0,72,0.00,,SKC,0.00,VWS V14.01,2013-08-29 00:25:00,
2013-08-28 20:30:00,80.0,70.2,29.99,SSE,149,5.0,5.0,72,0.00,,SKC,0.00,VWS V14.01,2013-08-29 00:30:00,
2013-08-28 20:35:00,79.8,70.0,29.99,SSE,150,3.0,5.0,72,0.00,,SKC,0.00,VWS V14.01,2013-08-29 00:35:00,
2013-08-28 20:40:00,79.6,70.2,29.99,SSE,155,1.0,5.0,73,0.00,,SKC,0.00,VWS V14.01,2013-08-29 00:40:00,
2013-08-28 20:45:00,79.6,70.2,29.99,SSE,155,1.0,3.0,73,0.00,,SKC,0.00,VWS V14.01,2013-08-29 00:45:00,
2013-08-28 20:50:00,79.5,70.5,29.99,SSE,155,0.0,4.0,74,0.00,,SKC,0.00,VWS V14.01,2013-08-29 00:50:00,
2013-08-28 20:55:00,79.4,70.4,29.99,SSE,155,0.0,2.0,74,0.00,,SKC,0.00,VWS V14.01,2013-08-29 00:55:00,
2013-08-28 21:00:00,79.4,70.4,30.00,SSE,155,0.0,2.0,74,0.00,,SKC,0.00,VWS V14.01,2013-08-29 01:00:00,
2013-08-28 21:05:00,79.4,70.4,30.00,SSE,155,0.0,1.0,74,0.00,,SKC,0.00,VWS V14.01,2013-08-29 01:05:00,
2013-08-28 21:10:00,79.4,70.8,30.00,SSE,155,1.0,2.0,75,0.00,,SKC,0.00,VWS V14.01,2013-08-29 01:10:00,
2013-08-28 21:15:00,79.3,70.7,30.00,SSE,155,1.0,2.0,75,0.00,,SKC,0.00,VWS V14.01,2013-08-29 01:15:00,
2013-08-28 21:20:00,79.2,70.6,30.00,SSE,155,1.0,3.0,75,0.00,,SKC,0.00,VWS V14.01,2013-08-29 01:20:00,
2013-08-28 21:25:00,79.1,70.5,30.00,SSE,155,0.0,2.0,75,0.00,,SKC,0.00,VWS V14.01,2013-08-29 01:25:00,
2013-08-28 21:30:00,79.0,70.8,30.00,SSE,155,0.0,2.0,76,0.00,,SKC,0.00,VWS V14.01,2013-08-29 01:30:00,
2013-08-28 21:35:00,79.0,70.8,30.00,SSE,155,0.0,2.0,76,0.00,,SKC,0.00,VWS V14.01,2013-08-29 01:35:00,
2013-08-28 21:40:00,78.9,70.7,30.01,SSE,155,2.0,3.0,76,0.00,,SKC,0.00,VWS V14.01,2013-08-29 01:40:00,
2013-08-28 21:45:00,78.8,70.6,30.01,SSE,155,0.0,2.0,76,0.00,,SKC,0.00,VWS V14.01,2013-08-29 01:45:00,
2013-08-28 21:50:00,78.8,70.6,30.01,SSE,155,2.0,2.0,76,0.00,,SKC,0.00,VWS V14.01,2013-08-29 01:50:00,
2013-08-28 21:55:00,78.9,70.7,30.01,SSE,155,1.0,2.0,76,0.00,,SKC,0.00,VWS V14.01,2013-08-29 01:55:00,
2013-08-28 22:00:00,79.0,70.8,30.01,SSE,155,0.0,1.0,76,0.00,,SKC,0.00,VWS V14.01,2013-08-29 02:00:00,
2013-08-28 22:05:00,79.1,70.9,30.01,SSE,155,2.0,2.0,76,0.00,,SKC,0.00,VWS V14.01,2013-08-29 02:05:00,
2013-08-28 22:10:00,79.0,70.8,30.02,SSE,155,1.0,2.0,76,0.00,,SKC,0.00,VWS V14.01,2013-08-29 02:10:00,
2013-08-28 22:15:00,79.0,70.8,30.02,SSE,155,0.0,1.0,76,0.00,,SKC,0.00,VWS V14.01,2013-08-29 02:15:00,
2013-08-28 22:20:00,78.9,70.7,30.02,SSE,155,0.0,2.0,76,0.00,,SKC,0.00,VWS V14.01,2013-08-29 02:20:00,
2013-08-28 22:25:00,78.9,70.7,30.02,SSE,155,1.0,1.0,76,0.00,,SKC,0.00,VWS V14.01,2013-08-29 02:25:00,
2013-08-28 22:30:00,78.8,70.6,30.02,SSE,155,2.0,2.0,76,0.00,,SKC,0.00,VWS V14.01,2013-08-29 02:30:00,
2013-08-28 22:35:00,78.7,70.9,30.02,SSE,155,1.0,3.0,77,0.00,,SKC,0.00,VWS V14.01,2013-08-29 02:35:00,
2013-08-28 22:40:00,78.6,71.2,30.02,SSE,155,2.0,3.0,78,0.00,,SKC,0.00,VWS V14.01,2013-08-29 02:40:00,
2013-08-28 22:45:00,78.5,71.1,30.02,SSE,155,1.0,1.0,78,0.00,,SKC,0.00,VWS V14.01,2013-08-29 02:45:00,
2013-08-28 22:50:00,78.2,71.2,30.02,SSE,155,0.0,2.0,79,0.00,,SKC,0.00,VWS V14.01,2013-08-29 02:50:00,
2013-08-28 22:55:00,78.1,71.1,30.02,SSE,155,0.0,2.0,79,0.00,,SKC,0.00,VWS V14.01,2013-08-29 02:55:00,
2013-08-28 23:00:00,78.0,71.3,30.02,SSE,155,1.0,2.0,80,0.00,,SKC,0.00,VWS V14.01,2013-08-29 03:00:00,
2013-08-28 23:05:00,78.0,71.3,30.02,SSE,155,1.0,3.0,80,0.00,,SKC,0.00,VWS V14.01,2013-08-29 03:05:00,
2013-08-28 23:10:00,77.9,71.2,30.02,SSE,155,2.0,3.0,80,0.00,,SKC,0.00,VWS V14.01,2013-08-29 03:10:00,
2013-08-28 23:15:00,77.8,71.5,30.02,SSE,155,1.0,3.0,81,0.00,,SKC,0.00,VWS V14.01,2013-08-29 03:15:00,
2013-08-28 23:20:00,77.6,71.3,30.02,SSE,155,0.0,2.0,81,0.00,,SKC,0.00,VWS V14.01,2013-08-29 03:20:00,
2013-08-28 23:25:00,77.5,71.6,30.02,SSE,155,0.0,1.0,82,0.00,,SKC,0.00,VWS V14.01,2013-08-29 03:25:00,
2013-08-28 23:30:00,77.4,71.5,30.02,SSE,155,0.0,0.0,82,0.00,,SKC,0.00,VWS V14.01,2013-08-29 03:30:00,
2013-08-28 23:35:00,77.3,71.4,30.02,SSE,155,0.0,0.0,82,0.00,,SKC,0.00,VWS V14.01,2013-08-29 03:35:00,
2013-08-28 23:40:00,77.3,71.4,30.02,SSE,155,0.0,2.0,82,0.00,,SKC,0.00,VWS V14.01,2013-08-29 03:40:00,
2013-08-28 23:45:00,77.4,71.5,30.02,SSE,155,1.0,2.0,82,0.00,,SKC,0.00,VWS V14.01,2013-08-29 03:45:00,
2013-08-28 23:50:00,77.3,71.4,30.02,SSE,155,1.0,2.0,82,0.00,,SKC,0.00,VWS V14.01,2013-08-29 03:50:00,
2013-08-28 23:55:00,77.2,71.3,30.03,SSE,155,0.0,3.0,82,0.00,,SKC,0.00,VWS V14.01,2013-08-29 03:55:00,